Powrót do katalogu

STARLINK-11313

AktywnyŁącznośćVLEO
NORAD 61255·PAYLOAD·🇺🇸 United States

Wystrzelony Sep 25, 2024 z Vandenberg Space Force Base

Loading…

Następne Przeloty (najbliższe 24 godziny)

TLE

ŚwieżeSource: CelesTrak SupGP

Epoka: Sep 15, 2026, 03:24 UTC

1 61255C 24175N   26258.14215278 -.00075148  00000+0 -61872-3 0  2582
2 61255  53.1572 202.4076 0001193  84.8863 182.4464 15.69758588    18

Śledź STARLINK-11313 w czasie rzeczywistym z AllMySat

Download on the App Store